AEST,Max TemperatureF,Mean TemperatureF,Min TemperatureF,Max Dew PointF,MeanDew PointF,Min DewpointF,Max Humidity, Mean Humidity, Min Humidity, Max Sea Level PressureIn, Mean Sea Level PressureIn, Min Sea Level PressureIn, Max VisibilityMiles, Mean VisibilityMiles, Min VisibilityMiles, Max Wind SpeedMPH, Mean Wind SpeedMPH, Max Gust SpeedMPH,PrecipitationIn, CloudCover, Events, WindDirDegrees
2013-11-1,87,79,71,73,71,68,94,73,47,29.99,29.93,29.89,19,7,4,15,8,,1.38,3,Rain,98
2013-11-2,85,78,70,75,70,64,100,81,48,30.06,29.97,29.92,19,6,3,18,9,30,0.67,5,Rain,161
2013-11-3,86,78,71,70,66,59,94,66,33,30.04,29.97,29.89,19,7,3,23,12,,0.00,3,Rain,153
2013-11-4,86,76,67,66,63,57,88,61,32,30.01,29.95,29.89,19,7,6,16,8,,0.00,1,,149
2013-11-5,86,76,66,68,64,59,88,64,31,30.01,29.96,29.92,19,7,6,24,13,,0.00,1,,146
2013-11-6,86,80,73,70,65,62,74,62,39,30.02,29.96,29.89,19,7,6,22,14,,0.00,2,Rain,151
2013-11-7,86,80,73,66,65,61,78,61,40,29.98,29.93,29.86,19,7,6,20,12,,0.00,2,Rain,140
2013-11-8,86,79,72,66,65,60,83,62,34,29.96,29.90,29.83,19,7,6,21,12,,0.00,1,,148
2013-11-9,87,78,69,66,63,55,83,61,25,29.93,29.87,29.80,19,7,6,18,11,,0.00,1,,148
2013-11-10,86,77,68,68,64,61,83,62,40,29.90,29.84,29.77,19,7,6,17,10,,0.00,2,,128
2013-11-11,88,78,68,73,68,64,88,67,42,29.88,29.82,29.77,19,7,6,18,7,,0.04,2,,123
2013-11-12,84,80,75,77,74,72,94,84,69,29.90,29.84,29.80,19,6,2,16,8,,0.75,5,Rain,124
2013-11-13,87,81,75,74,71,68,94,72,43,29.93,29.86,29.80,19,7,6,16,10,,0.00,3,Rain,146
2013-11-14,86,80,75,75,72,70,89,75,55,29.92,29.87,29.80,19,7,6,13,8,,0.00,6,,109
2013-11-15,86,80,73,75,73,70,100,81,61,29.90,29.84,29.77,19,7,6,10,5,,0.00,3,,3
2013-11-16,86,79,72,75,72,70,100,79,56,29.85,29.79,29.74,19,7,6,12,5,,0.00,1,,21
2013-11-17,86,80,75,74,71,68,91,73,53,29.84,29.78,29.71,19,7,6,14,6,,0.02,3,Rain,51
2013-11-18,87,80,72,77,72,68,100,81,51,29.86,29.79,29.71,19,7,6,13,6,,0.16,6,Rain,320
2013-11-19,88,80,73,75,72,68,100,76,44,29.85,29.80,29.74,19,7,4,10,5,,0.43,6,Rain,353
2013-11-20,86,80,74,77,75,72,100,84,63,29.86,29.78,29.74,19,6,2,15,6,,0.00,5,Rain-Thunderstorm,193
2013-11-21,86,80,75,77,75,72,100,87,63,29.81,29.77,29.74,19,6,3,13,4,,0.43,5,Rain-Thunderstorm,158
2013-11-22,86,79,72,77,74,70,100,81,59,29.83,29.76,29.71,19,7,6,12,5,,0.02,4,Rain,9
2013-11-23,86,80,75,77,75,73,100,86,65,29.78,29.73,29.68,19,7,3,17,5,,0.31,5,Rain-Thunderstorm,310
2013-11-24,85,80,75,77,75,73,95,87,64,29.79,29.73,29.65,16,6,2,13,7,,0.47,6,Rain,28
2013-11-25,84,79,73,77,74,72,100,87,63,29.74,29.69,29.62,19,7,1,17,6,30,1.18,6,Rain-Thunderstorm,308
2013-11-26,87,80,74,77,75,73,100,82,60,29.75,29.69,29.62,19,7,4,13,4,,0.00,3,Rain,2
2013-11-27,90,83,76,77,74,72,94,75,53,29.86,29.76,29.68,19,7,5,20,9,,0.01,5,Rain,158
2013-11-28,83,80,77,77,75,73,94,84,70,29.90,29.84,29.77,19,6,2,13,8,,0.24,6,Rain,165
2013-11-29,86,81,76,76,74,73,92,79,62,29.89,29.82,29.77,16,6,6,13,7,,0.00,6,Rain,134
2013-11-30,86,82,77,77,75,73,94,82,64,29.88,29.82,29.74,19,7,6,12,4,,0.08,4,Rain,17